User: anonymous   Login
Location: Monsanto
(38.0260°N, 122.0555°W)
Time: 00:56:49
(UTC+00:00)
Language:

NOSS 0 Rocket - Orbit

View from above orbital plane
View from above orbital plane
View from above satellite
View from above satellite

Ground track
Ground track

The orbit data is extracted from the following two-line orbital elements,

1 05679U 71110B   24194.59018746  .00000033  00000-0  74449-4 0  9995
2 05679  69.9974  39.9114 0014941 295.8590  64.0969 13.85525971271759
Epoch (UTC): 12 July 2024 14:09:52
Eccentricity: 0.0014941
inclination: 69.9974°
perigee height: 933 km
apogee height: 955 km
right ascension of ascending node: 39.9114°
argument of perigee: 295.8590°
revolutions per day: 13.85525971
mean anomaly at epoch: 64.0969°
orbit number at epoch: 27175

The dashed part of the orbit path shows where the satellite is in the earth's shadow,  

DLR